Location: ČR
(50.0000°N, 15.0000°E)
Time: 17:56:01
(UTC+00:00)

X-37B - Pass Details

Date: 28 September 2021
Orbit: 342 x 346 km, 45.0° (Epoch: 22 October)

Event Time Altitude Azimuth Distance (km) Brightness Sun altitude
Exits shadow 04:02:33 13° 242° (WSW) 1,133 2.3 -9.3°
Maximum altitude 04:04:41 29° 184° (S) 659 1.6 -9.0°
Drops below altitude 10° 04:07:17 10° 121° (ESE) 1,295 4.1 -8.6°
Sets 04:09:25 0° 109° (ESE) 2,135 5.6 -8.2°
